Vars, France 16 day weather forecast

Slopes altitude range 1660 m - 2750m

Number of lifts: 52 Pistes: 185km

In some cases the lift and piste totals shown are for the ski domain (e.g. Three Valleys) rather than individual resort (e.g. Courchevel)

Overview

The 16 day weather forecast is fully updated 4 times every day.

    • Sat 20 APR 2019
    • Sat 20
    • 3C 11C
    • Sun 21 APR 2019
    • Sun 21
    • 4C 8C
    • Mon 22 APR 2019
    • Mon 22
    • 4C 10C
    • Tue 23 APR 2019
    • Tue 23
    • 4C 9C
    • Wed 24 APR 2019
    • Wed 24
    • 6C 8C
    • Thu 25 APR 2019
    • Thu 25
    • 4C 10C
    • Fri 26 APR 2019
    • Fri 26
    • -1C 2C
    • Sat 27 APR 2019
    • Sat 27
    • 0C 9C
    • Sun 28 APR 2019
    • Sun 28
    • 4C 13C
    • Mon 29 APR 2019
    • Mon 29
    • 5C 13C
    • Tue 30 APR 2019
    • Tue 30
    • 3C 10C
    • Wed 01 MAY 2019
    • Wed 01
    • 4C 7C
    • Thu 02 MAY 2019
    • Thu 02
    • 3C 8C
    • Fri 03 MAY 2019
    • Fri 03
    • 4C 12C
    • Sat 04 MAY 2019
    • Sat 04
    • 4C 14C
    • Sun 05 MAY 2019
    • Sun 05
    • 6C 14C

Date:

Time Type 0°C level Temp Chill Snow Cloud Speed Gust Dir Press
3:00 2563m 2°C 2_7 0cm 0% 7mph 8mph 1027mB
6:00 2507m 1°C 1_8 0cm 0% 8mph 10mph 1027mB
9:00 2430m 3°C 3_6 0cm 1% 6mph 8mph 1026mB
12:00 2615m 11°C 11_7 0cm 14% 7mph 9mph 1025mB
15:00 2689m 11°C 11_7 0cm 17% 7mph 9mph 1023mB
18:00 2612m 11°C 11_7 0cm 47% 7mph 10mph 1023mB
21:00 2565m 4°C 4_8 0cm 100% 8mph 11mph 1024mB
0:00 2514m 2°C 2_8 0cm 97% 8mph 10mph 1024mB
3:00 2532m 3°C 3_8 0cm 99% 8mph 11mph 1022mB
6:00 2459m 3°C 3_8 0cm 96% 8mph 11mph 1021mB
9:00 2335m 4°C 4_8 0cm 99% 8mph 11mph 1020mB
12:00 2435m 8°C 8_8 0cm 98% 8mph 10mph 1018mB
15:00 2467m 9°C 9_7 0cm 92% 7mph 10mph 1016mB
18:00 2549m 9°C 9_8 0cm 91% 8mph 11mph 1015mB
21:00 2758m 3°C 3_9 0cm 73% 9mph 12mph 1016mB
0:00 2706m 2°C 2_9 0cm 76% 9mph 13mph 1015mB
3:00 2663m 2°C 2_10 0cm 92% 10mph 14mph 1012mB
6:00 2610m 2°C 2_11 0cm 86% 11mph 15mph 1010mB
9:00 2673m 4°C 4_11 0cm 62% 11mph 15mph 1008mB
12:00 2603m 10°C 10_10 0cm 57% 10mph 13mph 1005mB
15:00 2530m 9°C 9_10 0cm 99% 10mph 13mph 1003mB
18:00 2691m 9°C 9_9 0cm 99% 9mph 14mph 1003mB
21:00 2559m 4°C 4_8 0cm 100% 8mph 13mph 1004mB
0:00 2413m 3°C 3_9 0cm 99% 9mph 13mph 1003mB
3:00 2539m 3°C 3_8 0cm 100% 8mph 11mph 1001mB
6:00 2582m 2°C 2_7 0cm 99% 7mph 9mph 1001mB
9:00 2502m 4°C 4_4 0cm 97% 4mph 6mph 1001mB
12:00 2552m 9°C 9_4 0cm 98% 4mph 4mph 1001mB
15:00 2650m 11°C 11_2 0cm 69% 2mph 2mph 1000mB
18:00 2608m 11°C 11_4 0cm 65% 4mph 5mph 1002mB
21:00 2595m 5°C 5_4 0cm 92% 4mph 6mph 1006mB
0:00 2460m 4°C 4_4 0cm 83% 4mph 5mph 1007mB
3:00 2410m 3°C 3_1 0cm 37% 1mph 2mph 1007mB
6:00 2548m 3°C 3_6 0cm 41% 6mph 8mph 1008mB
9:00 2535m 6°C 6_8 0cm 75% 8mph 13mph 1009mB
12:00 2415m 8°C 8_6 0cm 86% 6mph 8mph 1011mB
15:00 2437m 6°C 6_6 0cm 100% 6mph 8mph 1011mB
18:00 2352m 6°C 6_5 0cm 100% 5mph 6mph 1012mB
21:00 2327m 3°C 3_3 0cm 100% 3mph 4mph 1014mB
0:00 2352m 3°C 3_2 0cm 100% 2mph 2mph 1014mB
3:00 2294m 3°C 3_3 0cm 98% 3mph 4mph 1014mB
6:00 2320m 2°C 2_4 0cm 84% 4mph 6mph 1013mB
9:00 2373m 4°C 4_7 0cm 15% 7mph 11mph 1013mB
12:00 2529m 10°C 10_8 0cm 14% 8mph 15mph 1012mB
15:00 2554m 10°C 10_8 0cm 14% 8mph 15mph 1011mB
18:00 2250m 10°C 10_5 0cm 53% 5mph 7mph 1011mB
21:00 2188m 3°C 3_7 0cm 97% 7mph 10mph 1012mB
0:00 2055m 2°C 2_7 0cm 99% 7mph 10mph 1012mB
3:00 1683m 0°C 0_9 2cm 99% 9mph 12mph 1012mB
6:00 1487m -2°C -2_9 3cm 99% 9mph 12mph 1012mB
9:00 1660m -1°C -1_10 1cm 97% 10mph 13mph 1013mB
12:00 1830m 2°C 2_9 1cm 97% 9mph 13mph 1013mB
15:00 1900m 3°C 3_10 0cm 57% 10mph 15mph 1013mB
18:00 1734m 3°C 3_7 0cm 41% 7mph 12mph 1015mB
21:00 1292m -3°C -3_6 0cm 18% 6mph 9mph 1017mB
0:00 1335m -3°C -3_6 0cm 16% 6mph 8mph 1018mB
3:00 1417m -2°C -2_7 0cm 77% 7mph 8mph 1018mB
6:00 1736m -2°C -2_8 0cm 84% 8mph 11mph 1019mB
9:00 2614m 0°C 0_6 0cm 33% 6mph 7mph 1018mB
12:00 2741m 9°C 9_6 0cm 36% 6mph 6mph 1018mB
15:00 2776m 6°C 6_7 0cm 76% 7mph 10mph 1018mB
18:00 2712m 6°C 6_7 0cm 88% 7mph 9mph 1019mB
21:00 2700m 0°C 0_6 0cm 100% 6mph 7mph 1022mB
0:00 2919m 0°C 0_4 0cm 100% 4mph 5mph 1022mB
3:00 3068m 1°C 1_5 0cm 100% 5mph 6mph 1021mB
6:00 3153m 1°C 1_5 0cm 100% 5mph 6mph 1020mB
9:00 3113m 4°C 4_1 0cm 96% 1mph 2mph 1019mB
12:00 2984m 13°C 13_1 0cm 92% 1mph 3mph 1018mB
15:00 2979m 13°C 13_0 0cm 90% 0mph 2mph 1016mB
18:00 3052m 13°C 13_1 0cm 95% 1mph 1mph 1016mB
21:00 2992m 4°C 4_3 0cm 100% 3mph 3mph 1018mB
0:00 2824m 3°C 3_1 0cm 100% 1mph 1mph 1018mB
3:00 2740m 2°C 2_3 0cm 14% 3mph 4mph 1018mB
6:00 2838m 2°C 2_3 0cm 7% 3mph 3mph 1017mB
9:00 2835m 5°C 5_2 0cm 15% 2mph 2mph 1016mB
12:00 2925m 13°C 13_3 0cm 21% 3mph 3mph 1014mB
15:00 2969m 12°C 12_2 0cm 100% 2mph 2mph 1012mB
18:00 2969m 12°C 12_2 0cm 79% 2mph 3mph 1013mB
21:00 2966m 4°C 4_5 0cm 5% 5mph 5mph 1014mB
0:00 2848m 3°C 3_4 0cm 2% 4mph 5mph 1014mB
Afternoon 0.0208333mm 0.125 2864m 10°C 10_5 0cm 22% 5mph 6mph 1012mB
Morning 0.140625mm 0.5 2897m 5°C 5_3 0cm 89% 3mph 5mph 1012mB
Afternoon 0.0364583mm 0.0625 2630m 7°C 7_8 0cm 95% 8mph 10mph 1010mB
Morning 0.661458mm 0.1875 2691m 4°C 4_5 0cm 93% 5mph 8mph 1010mB
Afternoon 0.09375mm 0.1875 2940m 8°C 8_6 0cm 92% 6mph 8mph 1010mB
Morning 0.223958mm 1.0625 3055m 5°C 5_2 0cm 86% 2mph 3mph 1012mB
Afternoon 0.0989583mm 1.1875 3092m 12°C 12_4 0cm 33% 4mph 6mph 1011mB
Morning 0.979167mm 11.6875 3155m 6°C 6_4 0cm 92% 4mph 5mph 1012mB
Afternoon 0.244792mm 2.9375 3247m 14°C 14_3 0cm 45% 3mph 4mph 1011mB
Morning 0.401042mm 4.8125 3363m 7°C 7_4 0cm 55% 4mph 5mph 1013mB
Afternoon 0.255208mm 2.875 3236m 14°C 14_4 0cm 76% 4mph 6mph 1011mB
Morning 0.859375mm 9.375 3196m 7°C 7_6 0cm 67% 6mph 6mph 1013mB

16 day outlook at a glance

Forecast issued: 20/04/2019 06:35:32

Chat

Your comments and questions. In a resort? Let us know what it's like!


Characters left 250

For terms and conditions see Readers Comments on the Cookie and privacy policy page.